Change the Weather History Date:

Saturday, April 28, 2012

  Actual Average (KAND) Record (KAND)
Temperature  
Mean Temperature 70 °F -  
Max Temperature 78 °F 76 °F 91 °F (1981)
Min Temperature 62 °F 51 °F 37 °F (2004)
Cooling Degree Days 4    
Growing Degree Days 20 (Base 50)    
Moisture  
Dew Point 63 °F    
Average Humidity 91    
Maximum Humidity 100    
Minimum Humidity 66    
Precipitation  
Precipitation 0.01 in - - ()
Sea Level Pressure  
Sea Level Pressure 30.10 in    
Wind  
Wind Speed 2 mph (NE)    
Max Wind Speed 9 mph    
Max Gust Speed -    
Visibility 4 miles    
Events Fog    
Averages and records for this station are not official NWS values.
T = Trace of Precipitation, MM = Missing Value Source: NWS Daily Summary

Daily Weather History Graph

Daily Weather History Graph

Search for Another Location

Airport or City:

Trip Planner

Search our weather history database for the weather conditions in past years. The results will help you decide how hot, cold, wet, or windy it might be!

Date:

Astronomy

Apr. 28, 2012 Rise Set
Actual Time 6:41 AM EDT 8:10 PM EDT
Civil Twilight 6:15 AM EDT 8:37 PM EDT
Nautical Twilight 5:43 AM EDT 9:09 PM EDT
Astronomical Twilight 5:09 AM EDT 9:43 PM EDT
Moon 12:21 PM EDT (4/28) 1:32 AM EDT (4/28)
Length of Visible Light 14h 22m
Length of Day
13h 29m
Waxing Crescent, 42% of the Moon is Illuminated
Apr 28
Waxing Crescent
Apr 29
First Quarter
May 5
Full
May 12
Last Quarter
May 20
New

Hourly Weather History & Observations

Time (EDT) Temp. Dew Point Humidity Pressure Visibility Wind Dir Wind Speed Gust Speed Precip Events Conditions
12:56 AM 66.9 °F 66.0 °F 97% 30.04 in 6.0 mi Calm Calm - 0.00 in   Clear
1:17 AM 66.2 °F 64.4 °F 94% 30.05 in 1.8 mi Calm Calm - N/A   Clear
1:28 AM 64.4 °F 64.4 °F 100% 30.05 in 0.5 mi Calm Calm - N/A Fog Fog
1:56 AM 64.0 °F 63.0 °F 96% 30.04 in 0.5 mi Calm Calm - N/A Fog Fog
2:07 AM 64.4 °F 62.6 °F 94% 30.06 in 2.0 mi Calm Calm - N/A   Clear
2:15 AM 64.4 °F 62.6 °F 94% 30.06 in 4.0 mi Calm Calm - N/A   Clear
2:56 AM 64.9 °F 64.0 °F 97% 30.03 in 5.0 mi Calm Calm - N/A   Clear
3:09 AM 64.4 °F 62.6 °F 94% 30.05 in 1.5 mi Calm Calm - N/A   Clear
3:33 AM 62.6 °F 62.6 °F 100% 30.05 in 0.5 mi Calm Calm - N/A Fog Fog
3:56 AM 62.1 °F 62.1 °F 100% 30.05 in 0.5 mi Calm Calm - N/A Fog Fog
4:05 AM 62.6 °F 62.6 °F 100% 30.07 in 0.2 mi Calm Calm - N/A Fog Fog
4:27 AM 62.6 °F 62.6 °F 100% 30.07 in 0.2 mi Calm Calm - N/A Fog Fog
4:39 AM 62.6 °F 62.6 °F 100% 30.08 in 0.2 mi Calm Calm - N/A Fog Fog
4:56 AM 62.1 °F 61.0 °F 96% 30.06 in 0.2 mi Calm Calm - 0.01 in Fog Fog
5:38 AM 62.6 °F 60.8 °F 94% 30.08 in 0.5 mi Calm Calm - N/A Fog Fog
5:56 AM 63.0 °F 62.1 °F 97% 30.06 in 0.8 mi Calm Calm - N/A   Overcast
6:04 AM 62.6 °F 62.6 °F 100% 30.09 in 2.0 mi Calm Calm - N/A   Overcast
6:21 AM 64.4 °F 62.6 °F 94% 30.09 in 4.0 mi Calm Calm - N/A   Overcast
6:56 AM 63.0 °F 63.0 °F 100% 30.09 in 2.5 mi Calm Calm - N/A   Overcast
7:12 AM 64.4 °F 62.6 °F 94% 30.11 in 2.0 mi Calm Calm - N/A   Overcast
7:26 AM 64.4 °F 64.4 °F 100% 30.12 in 1.8 mi Calm Calm - N/A   Overcast
7:56 AM 64.0 °F 64.0 °F 100% 30.12 in 2.0 mi Calm Calm - N/A   Overcast
8:07 AM 64.4 °F 64.4 °F 100% 30.13 in 1.8 mi North 5.8 mph - N/A   Overcast
9:24 AM 64.4 °F 64.4 °F 100% 30.14 in 0.5 mi NNE 5.8 mph - N/A Fog Fog
9:56 AM 63.0 °F 63.0 °F 100% 30.14 in 0.8 mi NNE 9.2 mph - N/A   Overcast
10:08 AM 62.6 °F 62.6 °F 100% 30.15 in 1.2 mi North 9.2 mph - N/A   Overcast
10:21 AM 62.6 °F 62.6 °F 100% 30.15 in 2.5 mi NE 6.9 mph - N/A   Overcast
10:29 AM 64.4 °F 62.6 °F 94% 30.15 in 3.0 mi NE 8.1 mph - N/A   Overcast
10:52 AM 64.4 °F 62.6 °F 94% 30.15 in 4.0 mi NE 4.6 mph - N/A   Overcast
10:56 AM 64.0 °F 62.1 °F 93% 30.14 in 4.0 mi NE 3.5 mph - N/A   Overcast
11:56 AM 66.0 °F 62.1 °F 87% 30.14 in 5.0 mi North 4.6 mph - N/A   Overcast
12:47 PM 68.0 °F 62.6 °F 83% 30.14 in 6.0 mi NE 4.6 mph - N/A   Haze
12:56 PM 68.0 °F 63.0 °F 84% 30.13 in 6.0 mi ENE 3.5 mph - N/A   Haze
1:56 PM 71.1 °F 64.0 °F 78% 30.11 in 7.0 mi Calm Calm - N/A   Overcast
2:24 PM 71.6 °F 64.4 °F 78% 30.12 in 8.0 mi Variable 3.5 mph - N/A   Mostly Cloudy
2:56 PM 75.9 °F 64.9 °F 69% 30.10 in 9.0 mi ENE 5.8 mph - N/A   Mostly Cloudy
3:30 PM 75.2 °F 64.4 °F 69% 30.10 in 9.0 mi NNW 3.5 mph - N/A   Partly Cloudy
3:56 PM 75.9 °F 64.9 °F 69% 30.08 in 10.0 mi NNE 4.6 mph - N/A   Mostly Cloudy
4:10 PM 75.2 °F 64.4 °F 69% 30.09 in 9.0 mi Variable 4.6 mph - N/A   Scattered Clouds
4:56 PM 77.0 °F 64.9 °F 66% 30.07 in 10.0 mi NE 8.1 mph - N/A   Partly Cloudy
5:56 PM 75.0 °F 64.0 °F 69% 30.08 in 10.0 mi NE 6.9 mph - N/A   Partly Cloudy
6:56 PM 71.1 °F 62.1 °F 73% 30.08 in 10.0 mi NE 5.8 mph - N/A   Partly Cloudy
7:56 PM 66.9 °F 61.0 °F 81% 30.09 in 9.0 mi ENE 4.6 mph - N/A   Clear
8:56 PM 64.9 °F 61.0 °F 87% 30.10 in 8.0 mi East 4.6 mph - N/A   Clear
9:56 PM 64.0 °F 60.1 °F 87% 30.11 in 7.0 mi Calm Calm - N/A   Clear
10:49 PM 62.6 °F 60.8 °F 94% 30.14 in 5.0 mi NE 4.6 mph - N/A   Mostly Cloudy
10:56 PM 63.0 °F 61.0 °F 93% 30.14 in 5.0 mi NE 4.6 mph - N/A   Mostly Cloudy
11:08 PM 62.6 °F 60.8 °F 94% 30.15 in 6.0 mi ENE 8.1 mph - N/A   Overcast
11:56 PM 63.0 °F 61.0 °F 93% 30.14 in 5.0 mi Variable 4.6 mph - N/A   Overcast